When you browse on this site, cookies collect data to enhance your experience and personalize the content and advertising you see.
Visit our Privacy Policy to learn more. By continuing to use the site, you agree to this use of cookies and data.
  • en France
  • Liste des pays
  • À 7 jours
  • Température de l'eau
  • Carte satellitaire
  • Carte météo
  • Widgets météo
  • user-avatar
    Se connecter

    Météo par heure à Artashat

    Ce jour, 22 Janvier, Mardi

    Heure Température Précipitation Vent Pression Humidité
    00:00 -10°C° 0 mm 2 m/s 597 mmHg 52%
    01:00 -10°C° 0 mm 2 m/s 597 mmHg 52%
    02:00 -9°C° 0 mm 1 m/s 597 mmHg 52%
    03:00 -10°C° 0 mm 1 m/s 597 mmHg 52%
    04:00 -10°C° 0 mm 1 m/s 597 mmHg 53%
    05:00 -10°C° 0 mm 1 m/s 597 mmHg 53%
    06:00 -10°C° 0 mm 1 m/s 596 mmHg 54%
    07:00 -9°C° 0 mm 1 m/s 597 mmHg 54%
    08:00 -8°C° 0 mm 1 m/s 597 mmHg 55%
    09:00 -8°C° 0 mm 1 m/s 597 mmHg 55%
    10:00 -6°C° 0 mm 1 m/s 597 mmHg 53%
    11:00 -4°C° 0 mm 1 m/s 597 mmHg 51%
    12:00 -4°C° 0 mm 0 m/s 598 mmHg 49%
    13:00 -4°C° 0 mm 0 m/s 597 mmHg 51%
    14:00 -4°C° 0 mm 0 m/s 597 mmHg 54%
    15:00 -3°C° 0 mm 0 m/s 597 mmHg 56%
    16:00 -3°C° 0 mm 1 m/s 597 mmHg 59%
    17:00 -4°C° 0 mm 1 m/s 597 mmHg 61%
    18:00 -6°C° 0 mm 1 m/s 597 mmHg 64%
    19:00 -7°C° 0 mm 1 m/s 597 mmHg 65%
    20:00 -7°C° 0 mm 1 m/s 597 mmHg 66%
    21:00 -8°C° 0 mm 1 m/s 597 mmHg 67%
    22:00 -8°C° 0 mm 1 m/s 597 mmHg 67%
    23:00 -8°C° 0 mm 1 m/s 597 mmHg 67%

    Demain, 23 Janvier, Mercredi

    Heure Température Précipitation Vent Pression Humidité
    00:00 -9°C° 0 mm 1 m/s 597 mmHg 67%
    01:00 -9°C° 0 mm 1 m/s 597 mmHg 67%
    02:00 -9°C° 0 mm 1 m/s 597 mmHg 68%
    03:00 -9°C° 0 mm 1 m/s 597 mmHg 68%
    04:00 -9°C° 0 mm 1 m/s 597 mmHg 68%
    05:00 -9°C° 0 mm 1 m/s 597 mmHg 68%
    06:00 -10°C° 0 mm 1 m/s 597 mmHg 68%
    07:00 -9°C° 0 mm 1 m/s 597 mmHg 67%
    08:00 -8°C° 0 mm 1 m/s 598 mmHg 66%
    09:00 -7°C° 0 mm 1 m/s 599 mmHg 65%
    10:00 -6°C° 0 mm 1 m/s 599 mmHg 64%
    11:00 -4°C° 0 mm 1 m/s 599 mmHg 62%
    12:00 -2°C° 0 mm 1 m/s 599 mmHg 60%
    13:00 -2°C° 0 mm 1 m/s 599 mmHg 61%
    14:00 -2°C° 0 mm 1 m/s 599 mmHg 63%
    15:00 -2°C° 0 mm 1 m/s 599 mmHg 64%
    16:00 -3°C° 0 mm 1 m/s 598 mmHg 66%
    17:00 -4°C° 0 mm 1 m/s 598 mmHg 68%
    18:00 -7°C° 0 mm 1 m/s 598 mmHg 69%
    19:00 -7°C° 0 mm 1 m/s 598 mmHg 69%
    20:00 -7°C° 0 mm 1 m/s 598 mmHg 69%
    21:00 -7°C° 0 mm 1 m/s 599 mmHg 68%
    22:00 -8°C° 0 mm 1 m/s 599 mmHg 68%
    23:00 -8°C° 0 mm 1 m/s 599 mmHg 68%

    Après-demain, 24 Janvier, Jeudi

    Heure Température Précipitation Vent Pression Humidité
    00:00 -8°C° 0 mm 1 m/s 599 mmHg 68%
    01:00 -8°C° 0 mm 1 m/s 599 mmHg 68%
    02:00 -8°C° 0 mm 1 m/s 599 mmHg 68%
    03:00 -8°C° 0 mm 1 m/s 599 mmHg 68%
    04:00 -8°C° 0 mm 1 m/s 599 mmHg 69%
    05:00 -9°C° 0 mm 1 m/s 599 mmHg 69%
    06:00 -9°C° 0 mm 1 m/s 599 mmHg 69%
    07:00 -8°C° 0 mm 1 m/s 599 mmHg 68%
    08:00 -7°C° 0 mm 1 m/s 600 mmHg 67%
    09:00 -6°C° 0 mm 1 m/s 600 mmHg 66%
    10:00 -4°C° 0 mm 1 m/s 600 mmHg 65%
    11:00 -3°C° 0 mm 1 m/s 600 mmHg 64%
    12:00 -1°C° 0 mm 1 m/s 600 mmHg 63%
    13:00 -3°C° 0 mm 2 m/s 600 mmHg 64%
    14:00 -3°C° 0 mm 2 m/s 600 mmHg 64%
    15:00 -3°C° 0 mm 2 m/s 599 mmHg 65%
    16:00 -4°C° 0 mm 2 m/s 599 mmHg 67%
    17:00 -6°C° 0 mm 2 m/s 599 mmHg 68%
    18:00 -7°C° 0 mm 2 m/s 599 mmHg 70%
    19:00 -7°C° 0 mm 2 m/s 599 mmHg 68%
    20:00 -7°C° 0 mm 2 m/s 598 mmHg 67%
    21:00 -7°C° 0 mm 2 m/s 598 mmHg 65%
    22:00 -7°C° 0 mm 2 m/s 598 mmHg 64%
    23:00 -7°C° 0 mm 2 m/s 598 mmHg 64%

    25 Janvier, Vendredi

    Heure Température Précipitation Vent Pression Humidité
    00:00 -7°C° 0 mm 2 m/s 598 mmHg 63%
    01:00 -7°C° 0 mm 2 m/s 598 mmHg 63%
    02:00 -6°C° 0 mm 1 m/s 598 mmHg 63%
    03:00 -6°C° 0 mm 1 m/s 598 mmHg 63%
    04:00 -4°C° 0 mm 1 m/s 597 mmHg 64%
    05:00 -4°C° 0 mm 1 m/s 597 mmHg 65%
    06:00 -4°C° 0 mm 1 m/s 597 mmHg 67%
    07:00 -4°C° 0.1 mm 1 m/s 597 mmHg 67%
    08:00 -3°C° 0.1 mm 1 m/s 598 mmHg 68%
    09:00 -3°C° 0.1 mm 1 m/s 598 mmHg 69%
    10:00 -2°C° 0.2 mm 1 m/s 598 mmHg 71%
    11:00 -1°C° 0.2 mm 1 m/s 598 mmHg 73%
    12:00 -3°C° 0.2 mm 2 m/s 598 mmHg 75%
    13:00 -2°C° 0.1 mm 2 m/s 598 mmHg 74%
    14:00 -2°C° 0.1 mm 2 m/s 598 mmHg 74%
    15:00 -2°C° 0.1 mm 2 m/s 597 mmHg 74%
    16:00 -3°C° 0 mm 2 m/s 597 mmHg 77%
    17:00 -4°C° 0 mm 2 m/s 597 mmHg 79%
    18:00 -6°C° 0 mm 2 m/s 597 mmHg 82%
    19:00 -6°C° 0 mm 2 m/s 597 mmHg 81%
    20:00 -6°C° 0 mm 2 m/s 597 mmHg 80%
    21:00 -6°C° 0 mm 2 m/s 597 mmHg 79%
    22:00 -7°C° 0 mm 2 m/s 597 mmHg 78%
    23:00 -7°C° 0 mm 2 m/s 597 mmHg 77%

    26 Janvier, Samedi

    Heure Température Précipitation Vent Pression Humidité
    00:00 -7°C° 0 mm 2 m/s 597 mmHg 77%
    01:00 -7°C° 0 mm 2 m/s 597 mmHg 77%
    02:00 -7°C° 0 mm 2 m/s 597 mmHg 77%
    03:00 -7°C° 0 mm 2 m/s 597 mmHg 77%
    04:00 -7°C° 0 mm 2 m/s 596 mmHg 76%
    05:00 -7°C° 0 mm 2 m/s 596 mmHg 76%
    06:00 -8°C° 0 mm 2 m/s 596 mmHg 75%
    07:00 -7°C° 0 mm 2 m/s 596 mmHg 72%
    08:00 -6°C° 0 mm 2 m/s 597 mmHg 70%
    09:00 -5°C° 0 mm 2 m/s 597 mmHg 67%
    10:00 -4°C° 0 mm 2 m/s 597 mmHg 66%
    11:00 -3°C° 0 mm 2 m/s 597 mmHg 66%
    12:00 -1°C° 0 mm 2 m/s 598 mmHg 65%
    13:00 -1°C° 0 mm 2 m/s 597 mmHg 64%
    14:00 -1°C° 0 mm 2 m/s 597 mmHg 63%
    15:00 +1°C° 0 mm 2 m/s 597 mmHg 63%
    16:00 -2°C° 0 mm 2 m/s 596 mmHg 65%
    17:00 -3°C° 0 mm 2 m/s 596 mmHg 68%
    18:00 -4°C° 0 mm 2 m/s 596 mmHg 71%
    19:00 -4°C° 0 mm 2 m/s 596 mmHg 70%
    20:00 -4°C° 0 mm 2 m/s 596 mmHg 69%
    21:00 -4°C° 0 mm 2 m/s 595 mmHg 68%
    22:00 -4°C° 0 mm 2 m/s 595 mmHg 68%
    23:00 -4°C° 0 mm 2 m/s 595 mmHg 68%

    27 Janvier, Dimanche

    Heure Température Précipitation Vent Pression Humidité
    00:00 -4°C° 0 mm 2 m/s 595 mmHg 68%
    01:00 -4°C° 0.1 mm 2 m/s 594 mmHg 69%
    02:00 -4°C° 0.1 mm 2 m/s 594 mmHg 70%
    03:00 -4°C° 0.1 mm 2 m/s 594 mmHg 70%
    04:00 -4°C° 0.1 mm 2 m/s 594 mmHg 71%
    05:00 -4°C° 0.1 mm 2 m/s 594 mmHg 72%
    06:00 -4°C° 0.1 mm 2 m/s 594 mmHg 74%
    07:00 -3°C° 0.2 mm 2 m/s 594 mmHg 74%
    08:00 -2°C° 0.2 mm 2 m/s 594 mmHg 74%
    09:00 -2°C° 0.2 mm 2 m/s 595 mmHg 74%
    10:00 -1°C° 0.4 mm 2 m/s 594 mmHg 76%
    11:00 +1°C° 0.4 mm 2 m/s 594 mmHg 77%
    12:00 +2°C° 0.4 mm 2 m/s 594 mmHg 79%
    13:00 +2°C° 0.4 mm 2 m/s 594 mmHg 78%
    14:00 +2°C° 0.4 mm 2 m/s 593 mmHg 77%
    15:00 +2°C° 0.4 mm 2 m/s 593 mmHg 77%
    16:00 +1°C° 0.3 mm 2 m/s 592 mmHg 78%
    17:00 -1°C° 0.3 mm 2 m/s 592 mmHg 80%
    18:00 0°C° 0.3 mm 1 m/s 592 mmHg 82%
    19:00 0°C° 0.5 mm 1 m/s 591 mmHg 82%
    20:00 0°C° 0.5 mm 1 m/s 591 mmHg 83%
    21:00 0°C° 0.5 mm 1 m/s 591 mmHg 83%
    22:00 0°C° 0.4 mm 1 m/s 591 mmHg 83%
    23:00 -1°C° 0.4 mm 1 m/s 590 mmHg 83%
    Voir plus